This is the latest recevied weather packets stored in our database for station/object N7CEE-2. If no packets are shown the sender has not sent any weather packets the latest 10 day(s).
| Time | Temp. | Humidity | Pressure | Rain* | Wind** | Luminosity | Snow |
|---|---|---|---|---|---|---|---|
| 1777372870 | 13.33° C | 45% | 1016.6 hPa | 0 mm | - | 0 W/m² | - |
| 1777372565 | 13.33° C | 45% | 1016.6 hPa | 0 mm | - | 0 W/m² | - |
| 1777372264 | 13.33° C | 45% | 1016.4 hPa | 0 mm | - | 0 W/m² | - |
| 1777371963 | 13.33° C | 44% | 1016.8 hPa | 0 mm | - | 0 W/m² | - |
| 1777371660 | 13.33° C | 45% | 1016.6 hPa | 0 mm | - | 0 W/m² | - |
| 1777371356 | 13.33° C | 45% | 1016.5 hPa | 0 mm | - | 0 W/m² | - |
| 1777371053 | 13.33° C | 44% | 1016.5 hPa | 0 mm | - | 0 W/m² | - |
| 1777370749 | 13.89° C | 44% | 1016.5 hPa | 0 mm | - | 0 W/m² | - |
| 1777370445 | 14.44° C | 42% | 1016.4 hPa | 0 mm | - | 0 W/m² | - |
| 1777370140 | 13.89° C | 43% | 1016.5 hPa | 0 mm | - | 0 W/m² | - |
| 1777369838 | 13.89° C | 42% | 1016.4 hPa | 0 mm | - | 0 W/m² | - |
| 1777369537 | 13.33° C | 42% | 1016.4 hPa | 0 mm | - | 0 W/m² | - |
| 1777369233 | 14.44° C | 41% | 1016.5 hPa | 0 mm | - | 0 W/m² | - |
| 1777368928 | 14.44° C | 40% | 1016.8 hPa | 0 mm | - | 0 W/m² | - |
| 1777368622 | 14.44° C | 40% | 1016.8 hPa | 0 mm | - | 0 W/m² | - |
| 1777368317 | 14.44° C | 41% | 1016.8 hPa | 0 mm | - | 0 W/m² | - |
| 1777368015 | 14.44° C | 41% | 1016.4 hPa | 0 mm | - | 0 W/m² | - |
| 1777367712 | 15° C | 41% | 1016.4 hPa | 0 mm | - | 0 W/m² | - |
| 1777367408 | 15° C | 38% | 1016.4 hPa | 0 mm | - | 0 W/m² | - |
| 1777367106 | 15° C | 39% | 1016.4 hPa | 0 mm | - | 0 W/m² | - |
| 1777366802 | 14.44° C | 39% | 1016.4 hPa | 0 mm | - | 0 W/m² | - |
| 1777366498 | 15° C | 39% | 1016.5 hPa | 0 mm | - | 0 W/m² | - |
| 1777366191 | 15.56° C | 38% | 1016.6 hPa | 0 mm | - | 0 W/m² | - |
| 1777365889 | 15.56° C | 38% | 1016.8 hPa | 0 mm | - | 0 W/m² | - |
| 1777365585 | 15° C | 40% | 1016.9 hPa | 0 mm | - | 0 W/m² | - |
* Rain latest hour (hover to see other rain measurements)
** Current wind speed in m/s (hover to see current wind gust speed)